Back to catalog

STARLINK-35341

AliveCommunicationsVLEO
NORAD 66027·PAYLOAD·🇺🇸 United States

Launched Oct 16, 2025 from Cape Canaveral Space Force Station

Loading…

Next Passes (next 24 hours)

TLE

FreshSource: CelesTrak SupGP

Epoch: Sep 14, 2026, 21:03 UTC

1 66027C 25232Y   26257.87756944  .00007828  00000+0  23132-3 0  2572
2 66027  53.1576 302.0884 0001024  93.8724 283.5571 15.34382139    16

Track STARLINK-35341 in real time with AllMySat

Download on the App Store